Terminal Aerodrome Forecast
Issued by NWS

Home | Current Version | Previous Version | Text Only | Print | Product List | Glossary On
Versions: 1 2 3 4 5 6 7 8 9 10 11 12 13 14 15 16 17 18 19 20 21 22 23 24 25 26 27 28 29 30
000
FTUS45 KGJT 041953 AAA
TAFDRO
TAF AMD
KDRO 041953Z 0420/0518 23008KT P6SM VCTS BKN100CB
      TEMPO 0420/0422 14010G22KT -TSRA BKN070CB
     FM050100 13007KT P6SM VCSH SCT080 BKN100
     FM050500 02007KT P6SM VCSH OVC060
     FM050800 33006KT P6SM -SHRA BKN030=

USA.gov is the U.S. government's official web portal to all federal, state and local government web resources and services.